Weather in Kirovo

Russia / Penza Oblast     52°47′16″N   44°00′04″E
temp.,
°C
wind,
m/s
gust,
m/s
humid.,
%
clouds,
%
prec.,
mm/h
press.,
hPa
HPBL,
m
16 june, wed
wed1600:00+16nnw35965 0.5 100783
03:00+15nw339511 0.6 100741
06:00+17nw36925 0.0 1007186
09:00+22nw56755 0.0 1008617
12:00+25wnw55635 0.0 10091299
15:00+24wnw67675 0.8 10091289
18:00+23wnw48759 1.4 1010440
21:00+18nw48905 1.4 1012148
17 june, thu
thu1700:00+16nnw37945 0.0 1014147
03:00+15n39965 0.0 1015216
06:00+17nne49900 0.0 1017315
09:00+21ne57690 0.0 1018754
12:00+22nne675497 0.0 10191296
15:00+21nne67530 0.0 10201327
18:00+20nne47670 0.0 1021601
21:00+15nne34860 0.0 102354
18 june, fri
fri1800:00+13nne35870 0.0 102383
03:00+12nne410845 0.0 1024189
06:00+14ne38794 0.0 1026241
09:00+19ne46620 0.0 1026703
12:00+21ne56520 0.0 10261584
15:00+22nne55525 0.0 10261668
18:00+20nne47680 0.0 1027476
21:00+15ne47790 0.0 1027112
19 june, sat
sat1900:00+14e22840 0.0 102822
03:00+13ese11875 0.0 102910
06:00+16wnw01810 0.0 103083
09:00+20ne11659 0.0 1030611
12:00+23ene11535 0.0 10291316
15:00+25nw01505 0.0 10281356
18:00+24nne11585 0.0 10271294
21:00+18ne117623 0.0 102711
20 june, sun
sun2000:00+17nnw118116 0.0 102711
03:00+16n118653 0.0 102811
06:00+19n12805 0.0 102888
09:00+23ne11660 0.0 1027587
12:00+26e11560 0.0 10261298
15:00+27ene11510 0.0 10251569
18:00+26e12610 0.0 10231339
21:00+21ene11750 0.0 102411